Wind_Speed
10 12 21 23 16 13 6 9 11 6 9 14 17 16 12 18 18 21 25 28 32 34 32 31 31 30 30 35 36 35 33 30 28 28 28 26 24 19 16 14 12 9 7 5
6 18 20 13 12 14 15 9 11 9 7 8 14 21 11 18 23 27 30 31 32 31 32 33 32 33 34 36 38 37 35 33 31 31 29 28 25 19 16 14 14 11 9 7
15 4 15 14 16 15 19 21 12 7 3 11 9 16 13 15 17 20 24 25 27 33 36 36 36 36 34 38 41 40 38 35 34 33 31 29 25 20 18 17 15 12 11 9
13 19 9 17 22 19 19 17 16 15 7 11 16 13 15 14 19 20 26 29 31 34 34 34 36 37 38 39 41 40 40 37 35 34 35 32 29 26 23 18 15 13 10 9
8 10 18 15 15 18 16 9 18 18 14 11 12 11 16 12 17 21 26 32 33 34 36 37 39 40 37 35 40 41 40 39 37 38 36 34 31 26 23 21 18 17 15 13
7 6 8 19 13 18 10 5 11 12 14 17 22 14 16 14 18 18 25 30 34 35 37 37 35 34 36 35 37 41 42 40 39 38 38 35 33 29 25 23 21 21 20 18
1 6 6 7 11 17 17 14 7 6 9 18 18 17 16 9 14 18 20 32 35 36 36 37 36 37 38 39 39 42 44 43 40 40 40 37 35 32 28 25 22 22 23 25
3 8 3 4 10 9 22 20 8 13 9 13 17 13 16 23 25 13 19 22 29 33 36 39 42 41 43 46 48 47 48 46 45 45 43 40 38 35 33 31 28 23 22 21
2 4 2 1 4 4 14 22 23 11 2 9 13 17 14 13 16 26 20 18 25 34 37 40 42 44 46 47 50 46 45 45 46 45 45 43 40 38 35 32 29 27 23 19
1 5 2 3 5 13 10 12 18 12 17 14 7 18 14 22 19 15 21 25 25 30 34 35 39 45 47 48 50 46 43 43 45 46 46 44 41 38 34 31 31 30 25 20
1 3 2 5 5 8 8 11 10 14 17 11 15 10 10 17 21 21 17 27 30 32 35 38 39 45 50 47 50 50 47 44 43 44 45 45 44 40 37 33 30 28 27 23
2 2 5 8 12 7 9 6 13 13 20 18 15 8 3 12 19 23 27 25 29 34 35 36 36 37 40 46 49 51 51 51 47 45 46 45 44 42 40 35 31 27 28 25
6 3 4 5 5 5 4 3 6 11 13 18 16 17 19 14 9 10 13 18 19 26 25 26 29 37 44 47 50 50 49 50 49 48 47 46 46 45 42 35 32 30 27 27
6 4 8 8 10 10 10 10 12 7 12 17 17 16 20 21 14 10 10 11 12 16 21 26 28 35 40 45 48 51 49 45 47 48 47 48 47 46 42 38 35 33 28 28
4 7 8 13 15 14 18 22 20 16 15 11 18 18 14 19 19 24 19 9 6 7 15 24 29 34 41 42 45 47 48 47 44 46 47 46 45 43 41 41 38 34 31 30
4 4 7 15 14 16 22 23 22 21 21 16 18 17 11 14 10 6 9 10 12 10 13 19 25 34 40 44 47 49 48 47 46 45 45 42 43 42 41 40 39 35 32 31
7 4 4 11 10 18 14 25 24 19 12 18 19 14 8 10 4 7 9 10 14 15 14 19 27 36 39 42 44 48 48 46 45 44 42 40 41 41 39 37 37 35 34 32
8 6 2 8 9 10 12 6 22 19 5 6 11 6 8 9 6 8 11 12 14 17 19 20 22 30 41 40 38 41 43 46 44 43 41 39 38 37 37 37 37 35 34 34
15 8 5 5 6 15 12 4 13 17 4 4 7 5 7 7 6 4 18 16 16 17 20 24 24 27 31 36 42 44 44 43 42 41 40 39 39 39 37 37 35 34 35 34
15 15 9 6 6 7 3 12 12 3 5 7 6 7 9 7 5 5 19 17 15 14 16 16 18 22 26 36 37 44 44 41 40 41 40 38 36 35 35 33 31 28 29 30
8 8 14 12 8 12 7 24 13 6 5 6 9 11 13 8 6 7 13 16 11 11 11 2 14 22 31 37 39 41 38 40 37 37 35 34 31 30 28 27 28 29 30 31
7 8 6 7 10 12 14 17 3 5 3 7 10 13 13 12 11 13 18 27 22 20 21 17 17 19 24 30 29 32 34 35 36 35 34 32 31 29 29 29 28 29 29 31
4 4 1 3 2 7 15 13 8 6 3 9 11 12 12 12 17 20 25 30 38 40 36 25 24 26 24 19 22 26 26 28 26 26 26 26 27 26 27 27 28 28 28 29
1 2 3 3 2 11 12 12 12 10 8 9 10 11 13 13 15 17 25 32 36 38 41 40 39 36 30 20 18 17 20 19 23 25 26 25 25 24 24 24 25 26 27 27
4 7 7 2 3 16 14 12 13 13 8 8 9 11 14 14 14 14 17 23 26 28 30 35 38 38 35 29 24 17 12 12 16 19 20 21 21 21 23 24 24 26 26 25
14 8 5 3 16 10 11 15 14 11 10 10 10 12 13 13 11 11 11 15 19 21 23 26 28 29 29 28 25 21 18 17 18 17 16 17 14 15 21 21 25 26 27 25
Wind_Direction
181 195 209 208 212 228 256 235 241 219 216 202 230 225 202 182 191 188 189 191 196 199 198 199 199 201 201 206 204 202 200 195 194 190 192 193 197 200 203 199 191 185 176 176
179 221 223 225 213 216 230 246 233 248 234 218 218 243 211 191 201 196 194 195 199 197 198 200 201 202 205 207 209 207 206 202 200 197 198 200 199 201 203 200 203 206 199 197
211 246 200 201 205 213 224 234 229 244 332 226 246 241 214 208 213 206 207 206 201 199 200 200 202 204 205 210 212 211 210 208 206 206 205 208 206 209 209 206 211 211 213 211
227 234 208 208 213 210 230 226 243 251 274 226 213 240 213 194 205 207 204 202 203 203 206 205 205 207 207 210 214 214 212 213 211 210 212 214 213 213 212 208 211 219 222 226
198 204 208 219 218 206 233 224 226 237 249 271 243 237 234 196 207 209 209 208 206 205 205 206 208 209 208 208 213 215 214 216 216 214 214 217 218 219 221 222 221 231 241 242
249 298 225 224 213 205 210 161 215 234 239 246 233 231 228 204 214 209 214 213 210 207 206 209 210 209 210 209 213 216 216 217 218 216 214 217 220 221 222 223 227 235 243 247
309 221 223 210 200 201 205 209 208 211 211 238 223 237 234 222 220 216 207 213 211 210 207 207 206 206 208 208 210 216 218 216 217 218 217 219 225 229 230 233 234 236 243 247
236 206 200 22 227 215 208 208 204 210 218 234 217 235 221 228 240 237 234 220 211 209 211 209 208 207 208 210 217 220 221 220 219 221 223 223 225 230 234 236 237 238 244 252
260 246 343 238 322 232 203 213 218 259 242 254 216 235 264 228 235 229 225 216 206 209 209 212 210 209 209 212 214 220 220 222 221 221 223 225 226 230 234 234 234 239 243 249
115 286 33 317 297 233 239 209 209 223 241 234 209 226 232 209 224 222 225 218 215 213 214 214 212 209 211 214 216 218 221 222 222 222 224 226 226 226 230 234 236 238 241 244
169 275 273 302 199 235 195 219 216 232 231 235 239 230 238 229 213 217 218 220 221 218 217 214 212 210 210 213 213 219 219 222 225 223 222 225 226 226 227 231 234 237 239 240
127 262 273 269 272 285 301 280 263 227 224 232 257 247 199 228 220 217 224 225 223 221 220 218 211 207 207 206 209 217 222 221 224 226 224 222 225 228 230 228 232 234 237 236
167 197 282 256 197 140 223 231 260 274 270 244 225 229 264 273 248 232 234 240 238 232 225 215 207 204 204 204 208 215 217 219 221 224 227 228 228 230 230 226 229 232 230 232
159 195 260 272 319 324 285 294 301 299 245 229 241 250 240 248 265 258 261 269 267 233 216 210 206 207 205 204 205 211 217 216 217 219 223 226 227 229 231 230 231 233 231 231
194 234 225 267 284 293 278 273 268 262 261 251 231 240 259 244 252 262 285 254 252 225 205 208 209 205 209 204 206 208 214 217 215 219 221 225 226 228 231 233 234 234 233 234
175 232 231 274 284 289 271 260 255 251 255 251 265 261 267 283 291 284 311 308 289 276 249 228 227 215 212 213 215 212 216 219 216 217 219 221 224 226 229 232 234 234 232 234
194 228 267 269 321 325 266 245 240 240 239 223 222 225 302 288 356 13 344 324 304 293 271 250 232 226 224 222 219 214 217 217 217 217 216 217 221 223 225 227 231 231 232 233
184 191 259 283 320 278 250 292 214 199 181 249 260 266 295 259 140 50 6 330 310 298 287 269 252 228 228 223 213 209 204 213 215 214 212 214 216 218 221 223 226 228 231 232
215 188 232 255 265 275 224 64 154 169 115 357 290 305 296 247 228 287 357 339 320 309 294 274 254 231 220 205 211 209 204 212 213 213 211 213 215 217 219 222 224 227 231 233
208 211 213 234 271 241 94 343 323 281 176 19 350 22 346 210 188 8 347 343 332 317 298 275 228 204 202 196 197 205 205 207 210 211 210 212 214 217 219 222 225 228 234 238
179 195 214 229 253 272 318 326 296 210 96 19 16 41 42 73 52 349 7 21 8 5 4 131 173 184 187 184 194 202 206 207 204 208 210 212 215 217 216 218 223 226 230 235
171 187 206 222 227 249 344 316 262 39 42 37 27 31 44 50 43 45 41 45 44 46 52 69 108 145 161 189 201 205 209 210 209 207 209 212 216 217 223 225 226 228 231 235
180 246 287 225 219 282 300 282 6 346 4 19 23 23 27 37 47 49 51 55 53 61 67 70 95 121 132 146 179 192 202 212 212 212 213 214 217 217 219 222 224 226 229 231
301 330 250 251 20 12 290 344 353 355 344 353 16 16 28 33 41 48 49 54 55 55 61 70 84 89 96 122 159 178 188 203 208 211 211 212 212 210 213 217 219 222 224 224
308 311 301 258 325 323 267 310 342 337 344 1 17 12 24 36 36 38 38 43 44 47 48 58 65 69 71 81 95 105 136 166 184 196 203 209 214 214 217 221 223 224 227 230
5 8 356 346 322 316 295 357 7 1 1 2 360 1 11 16 13 16 23 27 32 32 35 45 51 58 59 63 73 83 92 107 124 143 160 187 197 222 220 222 228 230 231 230
Height
1487 1487 1480 1478 1486 1488 1489 1490 1487 1483 1479 1482 1479 1481 1488 1495 1500 1503 1507 1511 1515 1519 1526 1531 1535 1540 1545 1548 1552 1557 1561 1565 1569 1572 1575 1579 1583 1587 1590 1592 1595 1597 1598 1599
1488 1479 1476 1485 1490 1492 1491 1492 1488 1481 1479 1483 1478 1476 1482 1489 1489 1493 1498 1503 1509 1517 1521 1526 1530 1535 1539 1543 1548 1553 1557 1562 1567 1570 1574 1577 1581 1585 1589 1591 1594 1596 1598 1599
1476 1475 1479 1483 1487 1491 1489 1489 1490 1487 1483 1480 1479 1480 1482 1483 1489 1493 1496 1502 1507 1510 1514 1519 1523 1528 1534 1537 1542 1548 1553 1558 1563 1568 1572 1576 1580 1583 1587 1589 1592 1595 1598 1599
1475 1472 1477 1477 1479 1484 1488 1485 1489 1491 1493 1491 1476 1484 1474 1473 1481 1484 1489 1494 1498 1504 1510 1515 1519 1522 1525 1531 1538 1543 1549 1555 1559 1564 1569 1572 1576 1579 1584 1588 1591 1594 1596 1598
1467 1467 1471 1476 1475 1479 1478 1482 1486 1488 1492 1491 1479 1481 1461 1466 1473 1474 1479 1484 1490 1495 1501 1505 1509 1514 1520 1527 1532 1538 1544 1550 1555 1559 1564 1569 1573 1577 1581 1585 1588 1592 1594 1596
1468 1467 1464 1463 1469 1475 1477 1480 1482 1485 1488 1494 1477 1475 1457 1459 1458 1463 1469 1476 1481 1487 1492 1497 1504 1512 1516 1522 1526 1532 1537 1543 1549 1554 1559 1564 1569 1572 1577 1581 1584 1588 1591 1594
1470 1464 1461 1462 1465 1470 1476 1478 1491 1500 1495 1477 1462 1474 1460 1446 1452 1452 1457 1464 1471 1478 1484 1490 1496 1501 1507 1512 1517 1524 1530 1536 1543 1549 1554 1559 1564 1569 1573 1577 1580 1584 1587 1589
1471 1465 1464 1470 1460 1462 1467 1469 1472 1489 1478 1467 1458 1457 1446 1445 1448 1451 1453 1456 1464 1471 1476 1480 1484 1490 1496 1501 1507 1514 1521 1529 1536 1542 1547 1553 1559 1564 1568 1572 1575 1579 1582 1585
1479 1470 1468 1467 1468 1465 1458 1463 1454 1464 1468 1464 1443 1446 1438 1438 1440 1442 1449 1453 1455 1459 1464 1468 1475 1479 1484 1492 1498 1504 1512 1520 1527 1534 1541 1547 1552 1557 1561 1566 1570 1574 1578 1581
1489 1479 1470 1469 1466 1460 1458 1450 1467 1464 1473 1469 1446 1442 1433 1429 1434 1434 1437 1443 1448 1451 1456 1461 1465 1470 1475 1482 1489 1497 1505 1511 1519 1527 1534 1540 1546 1551 1556 1560 1564 1568 1573 1577
1492 1489 1469 1468 1460 1452 1459 1455 1451 1447 1448 1450 1454 1436 1417 1420 1421 1425 1430 1434 1437 1441 1444 1448 1453 1458 1465 1473 1481 1488 1496 1504 1512 1519 1526 1533 1538 1544 1549 1554 1559 1563 1568 1572
1493 1492 1481 1469 1460 1464 1466 1462 1450 1450 1449 1440 1440 1431 1410 1413 1415 1418 1421 1426 1428 1431 1434 1438 1445 1454 1461 1464 1471 1477 1485 1495 1503 1511 1518 1524 1531 1537 1542 1546 1552 1557 1562 1567
1493 1495 1482 1458 1456 1464 1464 1461 1462 1460 1444 1439 1442 1438 1410 1415 1417 1418 1420 1422 1424 1425 1430 1436 1442 1443 1448 1454 1461 1469 1476 1483 1493 1502 1509 1516 1523 1529 1534 1540 1545 1550 1555 1560
1492 1494 1484 1468 1465 1476 1476 1472 1469 1469 1447 1436 1430 1426 1414 1412 1412 1413 1417 1418 1419 1420 1424 1429 1434 1436 1441 1446 1452 1460 1468 1475 1483 1491 1499 1507 1513 1520 1527 1533 1538 1543 1549 1553
1492 1489 1488 1481 1476 1475 1474 1472 1469 1467 1459 1446 1424 1425 1413 1410 1411 1410 1412 1416 1417 1418 1418 1421 1424 1428 1432 1439 1446 1453 1461 1468 1475 1482 1489 1497 1506 1513 1520 1525 1530 1536 1542 1546
1492 1485 1486 1478 1468 1466 1462 1459 1460 1459 1451 1450 1441 1428 1417 1416 1415 1413 1413 1413 1412 1414 1415 1416 1417 1422 1424 1429 1433 1440 1449 1456 1466 1473 1480 1489 1497 1504 1510 1517 1522 1528 1534 1539
1489 1485 1478 1468 1463 1466 1452 1438 1440 1442 1437 1437 1430 1417 1418 1414 1415 1415 1414 1413 1409 1409 1410 1410 1411 1412 1415 1419 1424 1430 1438 1448 1456 1465 1473 1481 1488 1495 1502 1509 1514 1519 1524 1531
1483 1486 1483 1468 1466 1465 1426 1416 1414 1425 1436 1436 1431 1423 1421 1413 1416 1415 1413 1411 1409 1405 1401 1400 1401 1404 1405 1412 1420 1428 1434 1441 1449 1458 1466 1473 1480 1487 1494 1500 1504 1511 1516 1521
1474 1479 1474 1472 1466 1443 1431 1427 1417 1418 1433 1434 1431 1423 1418 1415 1413 1410 1410 1406 1402 1398 1394 1391 1392 1394 1401 1408 1413 1420 1427 1436 1444 1451 1457 1464 1471 1479 1485 1491 1497 1503 1508 1513
1472 1473 1476 1471 1471 1440 1430 1432 1436 1428 1426 1431 1430 1420 1416 1408 1406 1414 1411 1405 1400 1396 1394 1387 1384 1389 1393 1400 1407 1414 1422 1430 1436 1443 1450 1458 1465 1472 1478 1485 1491 1497 1502 1507
1470 1473 1471 1469 1474 1451 1442 1441 1433 1429 1426 1427 1426 1421 1417 1413 1418 1418 1414 1408 1403 1397 1389 1384 1384 1387 1390 1397 1404 1410 1419 1424 1431 1440 1447 1454 1461 1467 1474 1480 1485 1489 1493 1498
1460 1463 1464 1468 1471 1451 1447 1437 1423 1429 1429 1428 1425 1421 1421 1421 1420 1417 1416 1409 1403 1397 1384 1382 1385 1389 1394 1399 1405 1411 1416 1424 1429 1436 1443 1449 1455 1462 1467 1472 1476 1481 1486 1490
1454 1460 1451 1453 1448 1445 1441 1440 1437 1434 1431 1427 1425 1424 1423 1422 1419 1419 1416 1410 1404 1396 1392 1394 1390 1387 1391 1400 1408 1411 1416 1423 1428 1434 1439 1444 1450 1455 1459 1464 1468 1473 1477 1482
1458 1457 1452 1449 1446 1442 1438 1436 1437 1434 1432 1428 1425 1425 1424 1423 1422 1421 1418 1414 1409 1405 1403 1400 1395 1394 1397 1403 1406 1409 1414 1420 1424 1430 1435 1439 1444 1448 1453 1457 1461 1465 1469 1473
1459 1454 1449 1446 1443 1440 1439 1436 1435 1432 1430 1427 1425 1425 1425 1424 1424 1423 1422 1418 1417 1414 1413 1409 1406 1406 1405 1407 1408 1414 1414 1420 1423 1428 1433 1438 1442 1447 1451 1454 1457 1459 1462 1466
1463 1460 1455 1449 1448 1444 1435 1435 1433 1430 1429 1427 1425 1425 1426 1426 1426 1425 1424 1423 1422 1420 1417 1413 1412 1411 1412 1414 1416 1419 1423 1423 1424 1427 1431 1434 1437 1443 1446 1449 1452 1456 1457 1458